| time (UTC) | temp F | wind direction | speed knots | gust knots | rain 1hr in | rain 24hr in | rain mn in | humidity % | barometer mb |
| 20260504001510 | 55 | 259 | 0.9 | 7.0 | 0.00 | 0.01 | 0.01 | 59 | 1009.2 |
| 20260504001055 | 55 | 242 | 2.6 | 8.7 | 0.00 | 0.01 | 0.01 | 59 | 1009.2 |
| 20260504000534 | 54 | 210 | 3.5 | 12.2 | 0.00 | 0.01 | 0.01 | 60 | 1009.2 |
| 20260504000140 | 54 | 200 | 1.7 | 7.0 | 0.00 | 0.01 | 0.01 | 63 | 1009.3 |
| 20260503235540 | 54 | 259 | 0.0 | 7.8 | 0.00 | 0.01 | 0.01 | 66 | 1009.3 |
| 20260503235020 | 53 | 252 | 2.6 | 7.8 | 0.00 | 0.01 | 0.01 | 68 | 1009.5 |
| 20260503234604 | 53 | 261 | 0.9 | 3.5 | 0.00 | 0.01 | 0.01 | 70 | 1009.5 |
| 20260503234047 | 52 | 271 | 0.0 | 3.5 | 0.00 | 0.01 | 0.01 | 71 | 1009.6 |
| 20260503233525 | 52 | 270 | 0.0 | 3.5 | 0.00 | 0.01 | 0.01 | 73 | 1009.7 |
| 20260503233007 | 52 | 224 | 0.0 | 3.5 | 0.00 | 0.01 | 0.01 | 75 | 1009.8 |
| 20260503232548 | 52 | 223 | 0.0 | 0.0 | 0.00 | 0.01 | 0.01 | 76 | 1009.8 |
| 20260503232029 | 52 | 223 | 0.0 | 1.7 | 0.00 | 0.01 | 0.01 | 77 | 1009.9 |
| 20260503231508 | 51 | 223 | 0.0 | 1.7 | 0.00 | 0.01 | 0.01 | 79 | 1010.0 |
| 20260503231052 | 51 | 223 | 0.0 | 1.7 | 0.01 | 0.01 | 0.01 | 79 | 1010.0 |
| 20260503230535 | 51 | 223 | 0.0 | 1.7 | 0.01 | 0.01 | 0.01 | 79 | 1010.0 |
| 20260503230116 | 51 | 223 | 0.0 | 0.0 | 0.01 | 0.01 | 0.01 | 80 | 1010.2 |
| 20260503225543 | 51 | 223 | 0.0 | 0.0 | 0.01 | 0.01 | 0.01 | 80 | 1010.1 |
| 20260503225018 | 52 | 223 | 0.0 | 0.0 | 0.01 | 0.01 | 0.01 | 80 | 1010.0 |
| 20260503224601 | 52 | 223 | 0.0 | 0.0 | 0.01 | 0.01 | 0.01 | 80 | 1010.1 |
| 20260503224041 | 52 | 223 | 0.0 | 0.0 | 0.01 | 0.01 | 0.01 | 79 | 1010.0 |
| 20260503223522 | 52 | 223 | 0.0 | 0.0 | 0.01 | 0.01 | 0.01 | 78 | 1010.1 |
| 20260503223001 | 52 | 223 | 0.0 | 0.0 | 0.01 | 0.01 | 0.01 | 77 | 1010.2 |
| 20260503222545 | 52 | 223 | 0.0 | 5.2 | 0.01 | 0.01 | 0.01 | 77 | 1010.3 |
| 20260503222025 | 52 | 223 | 1.7 | 7.0 | 0.01 | 0.01 | 0.01 | 76 | 1010.4 |
| 20260503221505 | 52 | 246 | 1.7 | 6.1 | 0.01 | 0.01 | 0.01 | 76 | 1010.4 |
| 20260503221049 | 52 | 254 | 1.7 | 4.3 | 0.00 | 0.00 | 0.00 | 75 | 1010.4 |
| 20260503220530 | 52 | 250 | 0.0 | 4.3 | 0.00 | 0.00 | 0.00 | 75 | 1010.4 |
| 20260503220113 | 53 | 250 | 0.0 | 7.0 | 0.00 | 0.00 | 0.00 | 74 | 1010.4 |
| 20260503215536 | 53 | 249 | 1.7 | 7.8 | 0.00 | 0.00 | 0.00 | 72 | 1010.3 |
| 20260503215015 | 53 | 270 | 2.6 | 7.8 | 0.00 | 0.00 | 0.00 | 71 | 1010.3 |
| 20260503214601 | 54 | 236 | 3.5 | 7.8 | 0.00 | 0.00 | 0.00 | 70 | 1010.3 |
| 20260503214043 | 54 | 252 | 3.5 | 7.8 | 0.00 | 0.00 | 0.00 | 68 | 1010.2 |
| 20260503213523 | 55 | 248 | 1.7 | 12.2 | 0.00 | 0.00 | 0.00 | 65 | 1010.0 |
| 20260503213111 | 55 | 273 | 5.2 | 12.2 | 0.00 | 0.00 | 0.00 | 63 | 1009.9 |
| 20260503212546 | 56 | 242 | 2.6 | 13.0 | 0.00 | 0.00 | 0.00 | 59 | 1009.8 |
| 20260503212021 | 56 | 254 | 6.1 | 13.0 | 0.00 | 0.00 | 0.00 | 58 | 1009.6 |
| 20260503211621 | 56 | 241 | 5.2 | 11.3 | 0.00 | 0.00 | 0.00 | 58 | 1009.4 |
| 20260503211044 | 56 | 275 | 3.5 | 12.2 | 0.00 | 0.00 | 0.00 | 58 | 1009.3 |
| 20260503210523 | 56 | 251 | 3.5 | 12.2 | 0.00 | 0.00 | 0.00 | 58 | 1009.4 |
| 20260503210108 | 55 | 245 | 2.6 | 7.8 | 0.00 | 0.00 | 0.00 | 59 | 1009.5 |
| 20260503205530 | 55 | 238 | 2.6 | 8.7 | 0.00 | 0.00 | 0.00 | 59 | 1009.7 |
| 20260503205009 | 54 | 222 | 2.6 | 12.2 | 0.00 | 0.00 | 0.00 | 59 | 1009.7 |
| 20260503204554 | 54 | 248 | 6.1 | 12.2 | 0.00 | 0.00 | 0.00 | 58 | 1009.7 |
| 20260503204033 | 54 | 246 | 4.3 | 9.6 | 0.00 | 0.00 | 0.00 | 58 | 1009.7 |
| 20260503203515 | 54 | 158 | 3.5 | 8.7 | 0.00 | 0.00 | 0.00 | 58 | 1009.8 |
| 20260503203113 | 55 | 237 | 1.7 | 8.7 | 0.00 | 0.00 | 0.00 | 58 | 1009.7 |
| 20260503202540 | 55 | 244 | 2.6 | 8.7 | 0.00 | 0.00 | 0.00 | 59 | 1009.8 |
| 20260503202017 | 55 | 235 | 2.6 | 7.0 | 0.00 | 0.00 | 0.00 | 58 | 1009.8 |
| 20260503201602 | 55 | 244 | 2.6 | 7.8 | 0.00 | 0.00 | 0.00 | 59 | 1009.9 |
| 20260503201041 | 55 | 251 | 3.5 | 16.5 | 0.00 | 0.00 | 0.00 | 57 | 1010.0 |
| 20260503200521 | 55 | 246 | 5.2 | 16.5 | 0.00 | 0.00 | 0.00 | 57 | 1010.0 |
| 20260503200105 | 55 | 252 | 2.6 | 7.0 | 0.00 | 0.00 | 0.00 | 57 | 1010.0 |
| 20260503195527 | 56 | 248 | 3.5 | 9.6 | 0.00 | 0.00 | 0.00 | 57 | 1010.0 |
| 20260503195007 | 56 | 229 | 3.5 | 11.3 | 0.00 | 0.00 | 0.00 | 57 | 1010.0 |
| 20260503194554 | 56 | 243 | 2.6 | 11.3 | 0.00 | 0.00 | 0.00 | 57 | 1010.1 |
| 20260503194029 | 56 | 262 | 3.5 | 10.4 | 0.00 | 0.00 | 0.00 | 57 | 1010.1 |
| 20260503193510 | 55 | 231 | 4.3 | 8.7 | 0.00 | 0.00 | 0.00 | 55 | 1010.3 |
| 20260503193054 | 56 | 235 | 4.3 | 8.7 | 0.00 | 0.00 | 0.00 | 55 | 1010.5 |
| 20260503192533 | 56 | 256 | 3.5 | 8.7 | 0.00 | 0.00 | 0.00 | 54 | 1010.5 |
| 20260503192013 | 57 | 241 | 3.5 | 8.7 | 0.00 | 0.00 | 0.00 | 52 | 1010.6 |
| 20260503191604 | 57 | 261 | 3.5 | 7.8 | 0.00 | 0.00 | 0.00 | 53 | 1010.7 |
| 20260503191041 | 57 | 248 | 2.6 | 9.6 | 0.00 | 0.00 | 0.00 | 54 | 1010.7 |
| 20260503190520 | 57 | 185 | 3.5 | 9.6 | 0.00 | 0.00 | 0.00 | 54 | 1010.9 |
| 20260503185521 | 56 | 207 | 2.6 | 8.7 | 0.00 | 0.00 | 0.00 | 54 | 1011.1 |
| 20260503185002 | 55 | 270 | 2.6 | 10.4 | 0.00 | 0.00 | 0.00 | 54 | 1011.1 |
| 20260503184545 | 55 | 250 | 4.3 | 10.4 | 0.00 | 0.00 | 0.00 | 54 | 1011.2 |
| 20260503184025 | 55 | 238 | 3.5 | 9.6 | 0.00 | 0.00 | 0.00 | 54 | 1011.3 |
| 20260503183505 | 55 | 219 | 1.7 | 7.8 | 0.00 | 0.00 | 0.00 | 54 | 1011.4 |
| 20260503183049 | 55 | 240 | 2.6 | 13.0 | 0.00 | 0.00 | 0.00 | 52 | 1011.5 |
| 20260503182529 | 55 | 229 | 3.5 | 13.0 | 0.00 | 0.00 | 0.00 | 51 | 1011.5 |
| 20260503182009 | 55 | 293 | 3.5 | 8.7 | 0.00 | 0.00 | 0.00 | 52 | 1011.7 |
| 20260503181603 | 55 | 269 | 1.7 | 12.2 | 0.00 | 0.00 | 0.00 | 52 | 1011.8 |
| 20260503181034 | 54 | 265 | 4.3 | 12.2 | 0.00 | 0.00 | 0.00 | 51 | 1011.8 |
| 20260503180512 | 55 | 163 | 6.1 | 11.3 | 0.00 | 0.00 | 0.00 | 49 | 1011.8 |
| 20260503180106 | 55 | 230 | 3.5 | 11.3 | 0.00 | 0.00 | 0.00 | 51 | 1011.8 |
| 20260503175515 | 54 | 208 | 4.3 | 13.0 | 0.00 | 0.00 | 0.00 | 50 | 1012.0 |
| 20260503175057 | 54 | 247 | 6.1 | 13.9 | 0.00 | 0.00 | 0.00 | 49 | 1012.1 |
| 20260503174538 | 54 | 184 | 4.3 | 13.9 | 0.00 | 0.00 | 0.00 | 51 | 1012.1 |
| 20260503174020 | 54 | 224 | 2.6 | 12.2 | 0.00 | 0.00 | 0.00 | 54 | 1012.2 |
| 20260503173601 | 54 | 219 | 4.3 | 11.3 | 0.00 | 0.00 | 0.00 | 55 | 1012.4 |
| 20260503173053 | 54 | 216 | 4.3 | 11.3 | 0.00 | 0.00 | 0.00 | 56 | 1012.4 |
| 20260503172521 | 54 | 256 | 1.7 | 9.6 | 0.00 | 0.00 | 0.00 | 58 | 1012.4 |
| 20260503172001 | 53 | 244 | 3.5 | 15.6 | 0.00 | 0.00 | 0.00 | 57 | 1012.5 |
| 20260503171545 | 53 | 254 | 6.1 | 15.6 | 0.00 | 0.00 | 0.00 | 56 | 1012.5 |
| 20260503171025 | 52 | 243 | 4.3 | 8.7 | 0.00 | 0.00 | 0.00 | 54 | 1012.7 |
| 20260503170506 | 52 | 243 | 4.3 | 8.7 | 0.00 | 0.00 | 0.00 | 51 | 1012.7 |
| 20260503150553 | 50 | 304 | 3.5 | 9.6 | 0.00 | 0.00 | 0.00 | 48 | 1014.3 |
| 20260503131101 | 46 | 256 | 2.6 | 7.0 | 0.00 | 0.00 | 0.00 | 65 | 1014.7 |
| 20260503130542 | 46 | 248 | 1.7 | 7.0 | 0.00 | 0.00 | 0.00 | 67 | 1014.6 |
| 20260503120119 | 43 | 240 | 2.6 | 6.1 | 0.00 | 0.00 | 0.00 | 79 | 1014.7 |
| 20260503110532 | 35 | 236 | 0.0 | 0.0 | 0.00 | 0.00 | 0.00 | 83 | 1014.7 |
| 20260503110116 | 35 | 236 | 0.0 | 0.0 | 0.00 | 0.00 | 0.00 | 83 | 1014.7 |
| 20260503100113 | 34 | 236 | 0.0 | 0.0 | 0.00 | 0.00 | 0.00 | 80 | 1014.8 |
| 20260503090107 | 34 | 236 | 0.0 | 0.0 | 0.00 | 0.00 | 0.00 | 75 | 1015.2 |
| 20260503081558 | 35 | 236 | 0.0 | 0.0 | 0.00 | 0.00 | 0.00 | 71 | 1015.5 |
| 20260503081037 | 35 | 236 | 0.0 | 0.0 | 0.00 | 0.00 | 0.00 | 72 | 1015.4 |
| 20260503080519 | 35 | 236 | 0.0 | 0.0 | 0.00 | 0.00 | 0.00 | 72 | 1015.4 |
| 20260503072531 | 38 | 236 | 0.0 | 0.0 | 0.00 | 0.00 | 0.00 | 66 | 1015.4 |
| 20260503072011 | 38 | 236 | 0.0 | 0.0 | 0.00 | 0.00 | 0.00 | 65 | 1015.4 |
| 20260503071603 | 38 | 236 | 0.0 | 1.7 | 0.00 | 0.00 | 0.00 | 65 | 1015.4 |
| 20260503071035 | 38 | 236 | 0.0 | 1.7 | 0.00 | 0.00 | 0.00 | 64 | 1015.4 |
| 20260503070519 | 38 | 236 | 0.0 | 1.7 | 0.00 | 0.00 | 0.00 | 64 | 1015.5 |
| 20260503070105 | 38 | 236 | 0.0 | 1.7 | 0.00 | 0.00 | 0.00 | 64 | 1015.5 |
| 20260503060107 | 40 | 239 | 0.9 | 4.3 | 0.00 | 0.00 | 0.00 | 68 | 1015.6 |
| 20260503055058 | 40 | 239 | 0.0 | 2.6 | 0.00 | 0.00 | 0.00 | 69 | 1015.6 |
| 20260503054538 | 40 | 239 | 0.9 | 3.5 | 0.00 | 0.00 | 0.00 | 69 | 1015.6 |
| 20260503054017 | 40 | 239 | 0.0 | 1.7 | 0.00 | 0.00 | 0.00 | 69 | 1015.6 |
| 20260503053603 | 40 | 239 | 0.0 | 1.7 | 0.00 | 0.00 | 0.00 | 68 | 1015.5 |
| 20260503053044 | 40 | 239 | 0.0 | 3.5 | 0.00 | 0.00 | 0.00 | 67 | 1015.6 |
| 20260503052522 | 40 | 239 | 0.0 | 3.5 | 0.00 | 0.00 | 0.00 | 67 | 1015.7 |
| 20260503052003 | 40 | 239 | 0.9 | 1.7 | 0.00 | 0.00 | 0.00 | 67 | 1015.7 |
| 20260503051546 | 40 | 239 | 0.0 | 1.7 | 0.00 | 0.00 | 0.00 | 67 | 1015.6 |
| 20260503051025 | 40 | 239 | 0.0 | 1.7 | 0.00 | 0.00 | 0.00 | 67 | 1015.6 |
| 20260503050505 | 40 | 239 | 0.0 | 3.5 | 0.00 | 0.00 | 0.00 | 67 | 1015.7 |
| 20260503050050 | 40 | 239 | 0.0 | 3.5 | 0.00 | 0.00 | 0.00 | 67 | 1015.7 |
| 20260503045511 | 40 | 239 | 0.0 | 3.5 | 0.00 | 0.00 | 0.00 | 67 | 1015.8 |
| 20260503045055 | 40 | 238 | 0.0 | 3.5 | 0.00 | 0.00 | 0.00 | 68 | 1015.7 |
| 20260503044535 | 40 | 238 | 0.0 | 3.5 | 0.00 | 0.00 | 0.00 | 68 | 1015.8 |
| 20260503044014 | 40 | 238 | 0.0 | 3.5 | 0.00 | 0.00 | 0.00 | 68 | 1015.9 |
| 20260503043558 | 40 | 238 | 0.0 | 0.9 | 0.00 | 0.00 | 0.00 | 69 | 1015.9 |
| 20260503043039 | 40 | 238 | 0.0 | 5.2 | 0.00 | 0.00 | 0.00 | 69 | 1016.0 |
| 20260503042519 | 40 | 238 | 0.9 | 5.2 | 0.00 | 0.00 | 0.00 | 69 | 1016.1 |
| 20260503042104 | 40 | 240 | 0.0 | 1.7 | 0.00 | 0.00 | 0.00 | 70 | 1016.0 |
| 20260503041543 | 40 | 240 | 0.0 | 3.5 | 0.00 | 0.00 | 0.00 | 70 | 1016.0 |
| 20260503041022 | 40 | 239 | 0.0 | 3.5 | 0.00 | 0.00 | 0.00 | 71 | 1016.0 |
| 20260503040502 | 40 | 239 | 0.0 | 3.5 | 0.00 | 0.00 | 0.00 | 71 | 1016.0 |
| 20260503040047 | 40 | 239 | 0.0 | 3.5 | 0.00 | 0.00 | 0.00 | 71 | 1016.0 |
| 20260503035509 | 40 | 241 | 0.0 | 3.5 | 0.00 | 0.00 | 0.00 | 72 | 1016.0 |
| 20260503035053 | 40 | 241 | 0.0 | 3.5 | 0.00 | 0.00 | 0.00 | 73 | 1016.0 |
| 20260503034533 | 40 | 241 | 0.0 | 1.7 | 0.00 | 0.00 | 0.00 | 73 | 1016.0 |
| 20260503034013 | 40 | 241 | 0.9 | 1.7 | 0.00 | 0.00 | 0.00 | 73 | 1016.1 |
| 20260503033556 | 41 | 241 | 0.0 | 0.0 | 0.00 | 0.00 | 0.00 | 73 | 1016.1 |
| 20260503033052 | 41 | 241 | 0.0 | 0.9 | 0.00 | 0.00 | 0.00 | 72 | 1016.2 |
| 20260503032517 | 41 | 241 | 0.0 | 0.9 | 0.00 | 0.00 | 0.00 | 71 | 1016.1 |
| 20260503032100 | 41 | 241 | 0.0 | 0.0 | 0.00 | 0.00 | 0.00 | 71 | 1016.2 |
| 20260503031541 | 41 | 241 | 0.0 | 1.7 | 0.00 | 0.00 | 0.00 | 71 | 1016.3 |
| 20260503031022 | 41 | 241 | 0.0 | 1.7 | 0.00 | 0.00 | 0.00 | 70 | 1016.2 |
| 20260503030501 | 42 | 241 | 0.0 | 0.9 | 0.00 | 0.00 | 0.00 | 69 | 1016.3 |
| 20260503030027 | 42 | 241 | 0.0 | 0.9 | 0.00 | 0.00 | 0.00 | 69 | 1016.2 |
| 20260503025505 | 42 | 241 | 0.0 | 1.7 | 0.00 | 0.00 | 0.00 | 68 | 1016.3 |
| 20260503025049 | 42 | 241 | 0.0 | 1.7 | 0.00 | 0.00 | 0.00 | 68 | 1016.3 |
| 20260503024529 | 42 | 241 | 0.0 | 0.9 | 0.00 | 0.00 | 0.00 | 68 | 1016.2 |
| 20260503024010 | 42 | 241 | 0.0 | 0.9 | 0.00 | 0.00 | 0.00 | 67 | 1016.2 |
| 20260503023558 | 42 | 241 | 0.0 | 1.7 | 0.00 | 0.00 | 0.00 | 67 | 1016.2 |
| 20260503023044 | 42 | 241 | 0.0 | 1.7 | 0.00 | 0.00 | 0.00 | 67 | 1016.3 |
| 20260503022513 | 43 | 241 | 0.0 | 1.7 | 0.00 | 0.00 | 0.00 | 68 | 1016.4 |
| 20260503022057 | 43 | 241 | 0.0 | 1.7 | 0.00 | 0.00 | 0.00 | 68 | 1016.4 |
| 20260503021538 | 43 | 241 | 0.0 | 1.7 | 0.00 | 0.00 | 0.00 | 67 | 1016.5 |
| 20260503021018 | 43 | 241 | 0.0 | 3.5 | 0.00 | 0.00 | 0.00 | 67 | 1016.5 |
| 20260503020603 | 43 | 241 | 0.9 | 3.5 | 0.00 | 0.00 | 0.00 | 67 | 1016.5 |
| 20260503020042 | 43 | 241 | 0.0 | 3.5 | 0.00 | 0.00 | 0.00 | 67 | 1016.5 |
| 20260503015507 | 43 | 241 | 0.0 | 1.7 | 0.00 | 0.00 | 0.00 | 67 | 1016.5 |
| 20260503015048 | 43 | 241 | 0.0 | 1.7 | 0.00 | 0.00 | 0.00 | 67 | 1016.5 |
| 20260503014527 | 42 | 241 | 0.0 | 1.7 | 0.00 | 0.00 | 0.00 | 67 | 1016.5 |
| 20260503014007 | 42 | 241 | 0.0 | 1.7 | 0.00 | 0.00 | 0.00 | 67 | 1016.5 |
| 20260503013551 | 42 | 241 | 0.0 | 1.7 | 0.00 | 0.00 | 0.00 | 67 | 1016.5 |
| 20260503013032 | 42 | 241 | 0.0 | 1.7 | 0.00 | 0.00 | 0.00 | 67 | 1016.5 |
| 20260503012512 | 42 | 241 | 0.0 | 3.5 | 0.00 | 0.00 | 0.00 | 67 | 1016.4 |
| 20260503012055 | 43 | 241 | 0.0 | 3.5 | 0.00 | 0.00 | 0.00 | 66 | 1016.4 |
| 20260503011549 | 43 | 241 | 0.0 | 1.7 | 0.00 | 0.00 | 0.00 | 66 | 1016.4 |
| 20260503011019 | 43 | 241 | 0.0 | 3.5 | 0.00 | 0.00 | 0.00 | 65 | 1016.4 |
| 20260503010559 | 43 | 241 | 0.0 | 4.3 | 0.00 | 0.00 | 0.00 | 65 | 1016.4 |
| 20260503010029 | 43 | 241 | 1.7 | 4.3 | 0.00 | 0.00 | 0.00 | 64 | 1016.4 |
| 20260503005606 | 43 | 237 | 0.0 | 4.3 | 0.00 | 0.00 | 0.00 | 64 | 1016.5 |
| 20260503005045 | 43 | 239 | 0.9 | 3.5 | 0.00 | 0.00 | 0.00 | 63 | 1016.5 |
| 20260503004524 | 43 | 239 | 0.0 | 3.5 | 0.00 | 0.00 | 0.00 | 62 | 1016.4 |
| 20260503004007 | 43 | 239 | 0.0 | 3.5 | 0.00 | 0.00 | 0.00 | 63 | 1016.4 |
| 20260503003548 | 43 | 239 | 0.0 | 3.5 | 0.00 | 0.00 | 0.00 | 64 | 1016.3 |
| 20260503003028 | 43 | 239 | 0.0 | 3.5 | 0.00 | 0.00 | 0.00 | 64 | 1016.3 |
| 20260503002514 | 43 | 239 | 0.0 | 4.3 | 0.00 | 0.00 | 0.00 | 64 | 1016.3 |
| 20260503002052 | 43 | 239 | 0.0 | 7.0 | 0.00 | 0.00 | 0.00 | 65 | 1016.2 |